Beverly, MA

10:41 AM EST on November 24, 2017 (GMT -0500)
Beverly Municipal

Weather History for KBVY - December, 2013

Change the Weather History Date:

Monday, December 16, 2013

  Actual Average Record
Temperature  
Mean Temperature 23 °F -  
Max Temperature 28 °F 39 °F 60 °F (2008)
Min Temperature 16 °F 23 °F 1 °F (2016)
Degree Days  
Heating Degree Days 42    
Moisture  
Dew Point 8 °F    
Average Humidity 53    
Maximum Humidity 75    
Minimum Humidity 36    
Precipitation  
Precipitation 0.00 in - - ()
Sea Level Pressure  
Sea Level Pressure 29.95 in    
Wind  
Wind Speed 11 mph (West)    
Max Wind Speed 17 mph    
Max Gust Speed 30 mph    
Visibility 10 miles    
Events      
Averages and records for this station are not official NWS values.
T = Trace of Precipitation, MM = Missing Value Source: NWS Daily Summary

Daily Weather History Graph

Daily Weather History Graph

Search for Another Location

Airport or City:

Trip Planner

Search our weather history database for the weather conditions in past years. The results will help you decide how hot, cold, wet, or windy it might be!

Date:

Astronomy

Dec. 16, 2013 Rise Set
Actual Time 7:07 AM EST 4:11 PM EST
Civil Twilight 6:35 AM EST 4:43 PM EST
Nautical Twilight 5:59 AM EST 5:19 PM EST
Astronomical Twilight 5:25 AM EST 5:53 PM EST
Moon 4:00 PM EST (12/16) 6:11 AM EST (12/16)
Length of Visible Light 10h 08m
Length of Day
9h 04m
Full, 100% of the Moon is Illuminated
Dec 16
Full
Dec 17
Full
Dec 25
Last Quarter
Jan 1
New
Jan 7
First Quarter

Hourly Weather History & Observations

Time (EST) Temp. Windchill Dew Point Humidity Pressure Visibility Wind Dir Wind Speed Gust Speed Precip Events Conditions
12:53 AM 24.1 °F 14.4 °F 17.1 °F 75% 29.73 in 10.0 mi WSW 9.2 mph - N/A   Mostly Cloudy
1:53 AM 25.0 °F 16.3 °F 17.1 °F 72% 29.75 in 10.0 mi WSW 8.1 mph - N/A   Mostly Cloudy
2:53 AM 27.0 °F 18.0 °F 18.0 °F 69% 29.76 in 10.0 mi WSW 9.2 mph - N/A   Overcast
3:53 AM 28.0 °F 20.0 °F 18.0 °F 66% 29.77 in 10.0 mi West 8.1 mph - N/A   Overcast
4:53 AM 27.0 °F 17.3 °F 18.0 °F 69% 29.79 in 10.0 mi West 10.4 mph - N/A   Mostly Cloudy
5:53 AM 26.1 °F 15.6 °F 15.1 °F 63% 29.81 in 10.0 mi West 11.5 mph - N/A   Clear
6:53 AM 24.1 °F 15.2 °F 12.9 °F 62% 29.84 in 10.0 mi West 8.1 mph - N/A   Clear
7:53 AM 24.1 °F 12.0 °F 10.0 °F 55% 29.87 in 10.0 mi West 13.8 mph - N/A   Clear
8:53 AM 24.1 °F 11.5 °F 10.0 °F 55% 29.91 in 10.0 mi WNW 15.0 mph 24.2 mph N/A   Clear
9:53 AM 25.0 °F 13.1 °F 9.0 °F 51% 29.93 in 10.0 mi WNW 13.8 mph 27.6 mph N/A   Clear
10:53 AM 26.1 °F 13.6 °F 8.1 °F 47% 29.93 in 10.0 mi WNW 16.1 mph 25.3 mph N/A   Clear
11:53 AM 27.0 °F 14.7 °F 6.1 °F 41% 29.93 in 10.0 mi West 16.1 mph 21.9 mph N/A   Clear
12:53 PM 27.0 °F 17.3 °F 3.0 °F 36% 29.94 in 10.0 mi West 10.4 mph 23.0 mph N/A   Clear
1:53 PM 27.0 °F 14.7 °F 3.0 °F 36% 29.94 in 10.0 mi West 16.1 mph 24.2 mph N/A   Clear
2:53 PM 27.0 °F 14.3 °F 3.0 °F 36% 29.96 in 10.0 mi West 17.3 mph 29.9 mph N/A   Scattered Clouds
3:53 PM 25.0 °F 13.6 °F 3.0 °F 39% 30.01 in 10.0 mi WNW 12.7 mph 25.3 mph N/A   Partly Cloudy
4:53 PM 23.0 °F 11.7 °F 3.9 °F 44% 30.04 in 10.0 mi West 11.5 mph 19.6 mph N/A   Partly Cloudy
5:53 PM 23.0 °F 11.1 °F 3.9 °F 44% 30.07 in 10.0 mi West 12.7 mph 21.9 mph N/A   Partly Cloudy
6:53 PM 21.0 °F 12.4 °F 3.9 °F 48% 30.10 in 10.0 mi West 6.9 mph - N/A   Clear
7:53 PM 19.9 °F 7.9 °F 5.0 °F 52% 30.13 in 10.0 mi West 11.5 mph - N/A   Clear
8:53 PM 19.9 °F 8.6 °F 3.9 °F 50% 30.15 in 10.0 mi West 10.4 mph - N/A   Clear
9:53 PM 19.0 °F 7.5 °F 3.9 °F 52% 30.17 in 10.0 mi West 10.4 mph - N/A   Clear
10:53 PM 18.0 °F 12.7 °F 3.9 °F 54% 30.18 in 10.0 mi West 3.5 mph - N/A   Clear
11:53 PM 16.0 °F 10.4 °F 3.9 °F 59% 30.20 in 10.0 mi WNW 3.5 mph - N/A   Clear